Weather History for Chanute, KS

Change the Weather History Date:

Sunday, February 17, 2013

  Actual Average Record
Temperature  
Mean Temperature 44 °F 38 °F  
Max Temperature 62 °F 49 °F 78 °F (2011)
Min Temperature 25 °F 27 °F -11 °F (1903)
Degree Days  
Heating Degree Days 21 27  
Month to date heating degree days 442 498  
Since 1 July heating degree days 2731 3297  
Cooling Degree Days 0 0  
Month to date cooling degree days 0 0  
Year to date cooling degree days 1 0  
Moisture  
Dew Point 27 °F    
Average Humidity 54    
Maximum Humidity 78    
Minimum Humidity 30    
Precipitation  
Precipitation 0.00 in 0.07 in 1.17 in (1961)
Month to date precipitation 0.47 1.03  
Year to date precipitation 2.84 2.29  
Sea Level Pressure  
Sea Level Pressure 29.91 in    
Wind  
Wind Speed 12 mph (SSE)    
Max Wind Speed 23 mph    
Max Gust Speed 30 mph    
Visibility 10 miles    
Events      
T = Trace of Precipitation, MM = Missing Value Source: NWS Daily Summary

Daily Weather History Graph

Daily Weather History Graph

Search for Another Location

Airport:

Trip Planner

Search our weather history database for the weather conditions in past years. The results will help you decide how hot, cold, wet, or windy it might be!

Date:

Astronomy

Feb. 17, 2013 Rise Set
Actual Time 7:08 AM CST 6:03 PM CST
Civil Twilight 6:42 AM CST 6:30 PM CST
Nautical Twilight 6:11 AM CST 7:00 PM CST
Astronomical Twilight 5:41 AM CST 7:31 PM CST
Moon 11:11 AM CST (2/17) 12:51 AM CST (2/17)
Length of Visible Light 11h 48m
Length of Day
10h 54m
Waxing Crescent, 49% of the Moon is Illuminated
Feb 17
Waxing Crescent
Feb 17
First Quarter
Feb 25
Full
Mar 4
Last Quarter
Mar 11
New

Hourly Weather History & Observations

Time (CST) Temp. Windchill Dew Point Humidity Pressure Visibility Wind Dir Wind Speed Gust Speed Precip Events Conditions
12:52 AM 28.9 °F 21.1 °F 17.1 °F 61% 30.08 in 10.0 mi SE 8.1 mph - N/A   Clear
1:52 AM 28.0 °F 19.3 °F 18.0 °F 66% 30.07 in 10.0 mi SE 9.2 mph - N/A   Clear
2:52 AM 27.0 °F 20.5 °F 18.0 °F 69% 30.07 in 10.0 mi SE 5.8 mph - N/A   Clear
3:52 AM 27.0 °F 20.5 °F 18.0 °F 69% 30.05 in 10.0 mi SE 5.8 mph - N/A   Clear
4:52 AM 27.0 °F 20.5 °F 18.0 °F 69% 30.04 in 10.0 mi SSE 5.8 mph - N/A   Clear
5:52 AM 27.0 °F 18.7 °F 19.0 °F 72% 30.04 in 10.0 mi SSE 8.1 mph - N/A   Clear
6:52 AM 26.1 °F 19.4 °F 19.0 °F 75% 30.03 in 10.0 mi SE 5.8 mph - N/A   Clear
7:52 AM 30.2 °F 21.3 °F 24.8 °F 80% 30.00 in 10.0 mi SSE 10.4 mph - N/A   Clear
8:52 AM 37.9 °F 30.5 °F 26.1 °F 62% 30.01 in 10.0 mi South 11.5 mph - N/A   Clear
9:52 AM 45.0 °F 39.3 °F 28.0 °F 52% 29.99 in 10.0 mi South 11.5 mph - N/A   Clear
10:52 AM 48.9 °F - 28.9 °F 46% 29.97 in 10.0 mi South 16.1 mph - N/A   Clear
11:52 AM 51.1 °F - 30.0 °F 44% 29.95 in 10.0 mi South 12.7 mph - N/A   Clear
12:52 PM 55.9 °F - 30.9 °F 39% 29.90 in 10.0 mi South 13.8 mph 20.7 mph N/A   Clear
1:52 PM 59.0 °F - 32.0 °F 36% 29.87 in 10.0 mi South 12.7 mph - N/A   Clear
2:52 PM 60.1 °F - 30.9 °F 33% 29.83 in 10.0 mi South 15.0 mph - N/A   Clear
3:52 PM 62.1 °F - 30.9 °F 31% 29.80 in 10.0 mi SSE 13.8 mph - N/A   Clear
4:52 PM 60.1 °F - 33.1 °F 36% 29.79 in 10.0 mi SSE 11.5 mph 21.9 mph N/A   Clear
5:52 PM 55.9 °F - 34.0 °F 44% 29.77 in 10.0 mi SE 8.1 mph - N/A   Clear
6:52 PM 53.1 °F - 34.0 °F 48% 29.75 in 10.0 mi SSE 11.5 mph - N/A   Clear
7:52 PM 52.0 °F - 33.1 °F 49% 29.75 in 10.0 mi SSE 12.7 mph - N/A   Clear
8:52 PM 54.0 °F - 32.0 °F 43% 29.74 in 10.0 mi South 16.1 mph - N/A   Clear
9:52 PM 54.0 °F - 30.9 °F 41% 29.73 in 10.0 mi South 20.7 mph - N/A   Clear
11:52 PM 54.0 °F - 30.9 °F 41% 29.69 in 10.0 mi South 20.7 mph 28.8 mph N/A   Clear